Theta_e
320 321 324 329 331 329 335 335 330 333 331 326 324 324 319 323 328 324 328 328 327 330 331 333 327 321 323 323 321 320 320 318 317 315 313 312 313 313 314 316 314 313 312 316 317 318 320 314 309
324 325 332 334 333 337 334 333 335 331 332 330 323 323 321 322 324 327 328 327 328 329 330 329 326 325 324 323 323 321 319 318 318 317 315 314 316 316 317 314 313 315 321 322 322 321 322 322 316
324 327 330 332 332 336 334 332 332 331 331 330 323 322 323 323 324 325 326 325 325 325 326 325 324 323 323 324 323 321 318 318 317 316 315 317 323 321 318 317 315 315 326 328 329 331 330 324 323
322 326 333 335 335 332 332 331 330 327 331 328 324 323 324 324 324 324 325 325 323 321 322 321 323 324 324 324 323 319 318 318 318 317 316 323 325 324 323 324 321 320 319 328 328 327 327 327 328
325 335 334 334 334 331 328 330 330 326 327 324 323 324 324 324 325 324 325 324 322 320 319 320 323 324 325 324 322 320 319 320 320 319 318 324 323 323 323 323 323 320 320 324 327 328 326 326 325
331 328 330 331 330 328 327 330 328 327 327 325 324 323 325 325 325 325 324 324 320 320 318 319 322 324 325 323 321 321 321 321 321 319 322 324 323 322 322 321 323 323 323 323 325 325 325 325 325
328 326 329 328 329 328 327 328 326 326 326 327 325 323 325 326 325 324 324 323 320 320 319 320 321 323 325 322 320 321 322 322 322 319 324 324 324 323 324 323 322 320 323 324 324 325 325 324 325
330 325 329 327 328 327 327 328 327 327 326 326 325 323 324 327 326 324 324 323 320 321 320 321 321 323 323 321 321 322 322 322 320 321 325 325 325 325 324 323 319 317 317 323 325 325 323 324 324
329 326 326 327 327 326 327 327 327 329 329 327 328 327 328 326 326 324 324 323 320 321 321 322 322 322 322 321 322 322 322 321 318 323 325 325 326 325 325 323 321 318 316 317 324 324 324 324 323
327 325 327 324 324 325 326 327 328 327 327 328 327 328 327 327 325 325 324 324 322 322 321 321 322 322 322 322 322 323 322 318 318 321 324 325 325 325 326 323 322 317 317 317 322 325 326 321 324
327 329 327 326 326 327 328 328 329 328 326 328 327 330 330 328 325 325 325 324 324 324 322 321 322 322 322 322 322 322 320 317 321 322 323 325 325 326 326 323 323 319 321 322 320 324 324 323 323
327 327 328 327 327 327 327 328 328 329 328 329 329 329 327 326 325 325 325 325 323 324 322 322 322 322 322 322 322 322 316 321 325 326 326 326 326 326 324 324 324 323 320 322 322 321 322 324 322
324 325 326 327 327 327 327 328 328 328 329 329 328 326 327 326 325 325 325 325 324 324 323 322 323 323 322 322 323 319 316 323 326 328 328 327 327 326 324 324 324 324 321 320 320 321 322 323 324
322 325 323 323 324 323 325 324 325 326 326 325 326 327 326 325 326 325 325 325 325 324 323 322 323 322 322 323 322 317 321 326 327 326 326 325 325 326 325 324 324 325 321 321 321 320 322 322 323
317 315 315 316 317 318 320 319 321 322 323 324 325 326 326 326 325 325 326 325 325 324 323 322 322 322 322 324 318 318 323 327 327 327 326 326 325 325 326 325 324 325 322 322 322 320 321 322 324
317 315 317 317 318 318 319 319 320 321 322 323 324 325 325 325 325 325 326 325 325 324 323 322 322 322 324 321 317 321 324 326 327 327 326 325 326 326 325 326 324 324 321 320 322 321 322 323 324
314 315 314 315 316 317 319 319 320 322 322 322 323 324 325 325 325 326 325 325 324 324 322 322 322 324 323 318 318 322 325 326 325 326 326 326 326 327 325 325 324 323 320 321 322 322 322 324 323
315 314 315 315 317 316 316 317 319 320 320 321 323 323 324 324 326 325 324 324 324 323 322 322 324 324 320 318 321 323 325 325 327 328 328 328 328 327 325 323 323 321 319 323 323 322 323 324 322
315 314 315 317 318 318 318 318 319 320 320 320 321 322 324 325 326 326 324 322 323 323 322 324 325 323 318 318 323 326 323 325 326 327 327 327 328 326 326 323 321 320 321 323 323 322 323 324 324
316 316 317 318 319 319 318 319 318 319 319 320 322 323 324 325 326 324 324 323 321 322 324 325 324 319 318 323 324 322 324 325 325 326 327 328 326 326 326 323 321 321 323 323 322 322 323 324 324
318 318 318 318 318 317 317 318 318 319 321 322 323 324 325 325 325 324 324 322 322 323 325 325 322 319 321 324 323 323 325 324 324 326 327 326 326 325 325 325 321 323 324 323 322 322 323 324 325
317 319 320 320 318 317 318 320 319 319 320 320 322 323 324 324 324 325 324 322 323 325 325 323 320 319 322 324 325 325 324 324 324 325 325 325 326 325 323 322 322 324 322 322 321 322 322 324 324
318 318 319 318 317 318 320 320 321 319 320 320 320 323 324 323 323 325 323 323 325 325 324 322 321 319 323 325 327 325 324 325 323 325 326 327 327 325 323 323 323 322 323 322 321 322 323 324 324
317 316 315 315 316 317 317 320 319 320 321 321 320 323 324 324 325 325 324 324 325 324 323 321 321 320 323 327 327 325 326 325 324 324 327 326 327 325 323 323 322 322 323 324 324 324 325 325 325
313 312 313 314 315 318 318 318 319 319 319 320 320 321 323 325 325 325 324 325 325 324 323 323 319 319 324 327 327 325 326 325 324 325 327 327 326 325 322 324 323 322 322 323 324 324 324 325 325
314 312 313 315 319 321 318 322 321 320 321 322 323 322 323 325 325 325 325 325 325 325 324 322 318 322 325 327 326 326 327 326 325 325 326 326 326 325 322 324 324 323 322 322 325 324 325 325 325
312 315 312 315 318 319 319 320 320 319 320 320 320 322 323 325 325 325 325 325 326 325 324 321 322 325 326 328 325 328 327 326 325 325 326 326 325 325 322 323 323 323 322 325 324 324 324 324 325
313 312 314 312 318 321 320 322 322 322 322 324 323 321 323 324 325 325 325 325 326 325 323 321 324 325 326 327 326 327 327 326 325 325 327 326 326 325 323 321 323 324 323 323 324 324 324 323 325
310 313 311 312 314 318 321 321 318 321 321 323 322 323 324 324 325 325 325 326 327 325 323 322 325 326 326 326 326 326 327 326 325 326 326 324 327 326 323 321 323 325 324 323 323 323 324 324 323
313 312 312 314 314 315 318 319 319 319 318 320 321 323 324 325 325 325 325 326 327 324 323 322 326 326 325 325 325 326 326 326 326 326 325 326 326 326 326 321 320 323 324 323 323 324 325 324 323
Wind_Speed
8 9 7 3 3 4 3 6 2 5 2 3 3 8 9 6 6 5 5 14 11 16 14 21 19 14 10 8 9 9 9 9 9 10 10 11 12 12 13 13 13 13 11 11 11 11 12 13 15
7 7 5 3 3 1 5 4 5 5 7 12 6 6 5 5 7 4 14 15 11 14 15 15 16 14 12 10 11 9 9 10 10 12 13 13 13 13 14 15 15 15 13 12 11 12 12 12 14
7 5 1 3 3 4 4 5 5 13 23 12 4 7 2 4 8 5 7 12 10 13 14 15 15 13 12 11 10 8 9 9 10 13 14 14 14 15 15 16 15 16 15 13 12 11 13 12 13
6 3 2 2 5 6 5 6 4 10 16 6 8 4 6 10 5 7 10 11 10 9 12 14 14 14 14 12 11 8 8 7 10 12 12 11 15 16 16 16 17 17 17 15 17 17 16 14 15
7 2 1 2 5 5 6 18 13 6 7 7 9 5 5 10 13 10 11 12 10 7 12 12 14 14 14 12 11 9 8 8 10 13 12 12 15 15 16 19 19 19 19 19 18 18 18 16 17
3 2 1 4 5 5 7 17 16 5 8 4 5 2 8 13 18 14 13 12 10 5 8 13 15 16 15 14 14 12 10 11 13 15 11 12 12 13 15 18 21 21 21 22 20 20 19 19 20
5 4 4 4 5 6 5 3 4 3 6 5 7 3 10 18 16 17 15 14 11 9 12 14 17 19 19 16 15 13 12 14 16 15 12 12 12 12 13 15 18 19 21 22 23 23 23 23 22
5 4 2 5 3 8 5 2 2 5 8 11 2 4 11 17 16 22 17 19 18 15 16 20 19 21 21 19 17 14 15 17 19 17 15 14 13 13 13 15 15 16 18 19 20 22 24 25 25
6 1 5 7 6 8 5 2 3 7 12 15 20 22 26 26 19 24 24 26 25 23 21 25 24 23 23 21 18 16 18 19 21 18 18 17 16 15 14 14 13 14 15 16 15 15 18 24 24
8 5 10 8 8 7 5 3 16 7 21 26 21 27 24 31 24 28 31 34 31 29 25 27 27 27 25 22 19 18 18 21 19 18 17 18 17 16 15 14 12 13 14 15 15 16 17 19 22
11 14 15 10 23 10 9 19 10 9 11 27 23 40 40 39 28 32 34 35 33 28 27 29 30 28 25 22 18 18 19 16 15 14 15 16 17 17 17 14 13 12 11 12 15 16 13 18 22
3 16 30 19 19 9 11 17 21 23 30 34 37 39 37 34 31 37 35 37 35 32 29 30 31 29 25 21 18 19 16 12 10 9 11 13 15 17 16 14 14 12 13 13 12 14 15 15 19
8 12 17 24 25 28 23 21 21 27 47 37 35 35 40 30 34 39 35 35 35 35 34 34 31 28 24 20 19 17 13 9 9 11 11 12 14 16 15 15 14 13 12 13 12 14 15 14 15
8 14 16 15 24 27 21 23 11 28 41 34 40 39 38 32 34 36 39 39 38 39 37 34 30 27 23 20 18 14 10 9 9 10 11 12 13 14 15 16 15 14 12 12 11 12 14 13 15
7 4 8 13 17 9 24 7 14 42 31 33 35 37 37 36 33 39 39 40 38 41 39 33 28 27 23 19 14 11 8 10 11 12 12 11 12 13 14 15 15 14 12 11 11 12 14 14 15
1 3 3 4 5 8 10 9 19 30 29 33 30 30 33 39 37 36 40 44 41 42 37 30 28 27 20 16 12 9 9 10 11 13 12 11 12 13 13 14 14 13 13 12 11 11 14 14 16
1 9 9 6 12 6 7 13 17 22 20 28 35 38 36 38 34 33 39 47 43 40 33 28 29 23 18 13 10 9 10 10 10 12 12 13 14 13 13 12 12 13 13 12 11 11 14 14 17
6 6 6 9 3 4 8 11 19 33 19 27 27 32 38 40 33 31 31 40 38 32 28 29 26 19 15 11 9 9 8 9 12 13 13 14 13 12 11 11 12 13 12 11 11 11 15 15 16
10 14 10 8 3 6 7 8 18 22 15 20 29 33 38 31 29 26 23 27 32 28 31 32 24 17 13 11 9 7 7 10 12 13 13 13 12 12 10 10 12 12 11 10 10 14 15 15 15
12 15 14 16 6 5 11 12 16 17 15 22 28 35 33 28 24 20 18 25 28 31 36 27 19 15 12 10 7 6 7 9 10 9 10 10 10 11 10 9 10 11 10 10 11 18 17 16 14
19 21 19 18 4 4 7 11 15 14 10 18 25 21 20 20 18 19 19 20 27 36 31 22 16 14 11 8 5 4 6 8 9 7 5 6 8 8 7 8 10 9 9 8 13 19 16 16 16
24 16 16 14 1 4 4 6 13 15 13 8 21 20 19 17 15 14 16 22 32 32 25 18 15 13 11 6 2 3 4 8 9 7 6 7 7 4 2 7 8 8 8 8 15 17 15 15 15
13 13 13 9 5 3 2 5 6 4 11 12 10 25 18 14 13 16 20 28 33 28 21 17 14 11 10 5 1 3 5 8 9 9 7 6 6 3 4 6 5 7 7 10 14 15 14 14 13
8 6 5 3 2 6 9 7 7 6 15 7 7 10 10 9 15 18 23 33 30 23 20 17 12 10 9 5 1 3 6 7 9 10 8 6 3 4 6 6 7 7 9 10 13 12 11 10 11
9 8 1 2 2 5 5 8 15 9 10 11 11 12 6 14 21 25 36 35 30 25 20 16 11 9 8 5 2 3 4 7 9 11 8 4 0 5 8 7 6 7 9 10 11 10 10 10 11
22 13 7 8 4 4 10 8 6 20 22 24 24 17 13 19 23 31 37 34 28 24 19 13 10 9 8 5 1 1 3 7 8 9 7 5 3 6 10 8 8 7 9 10 11 10 11 11 11
7 15 9 4 2 2 5 6 6 9 8 8 8 13 20 23 28 33 36 31 27 22 18 12 11 10 8 5 1 1 3 6 7 7 7 3 3 6 11 10 9 8 11 9 12 11 10 11 11
14 11 6 3 6 4 5 4 5 6 7 4 5 10 20 24 28 33 35 30 25 18 17 13 11 8 7 5 3 2 3 5 7 7 5 5 3 5 11 11 11 9 10 10 12 11 9 9 9
4 10 3 6 5 5 1 6 7 7 8 8 8 16 24 28 30 34 35 29 22 19 17 13 13 10 7 5 3 1 2 4 6 7 4 3 3 6 9 12 12 9 9 9 9 8 8 10 9
14 9 9 8 10 2 3 5 4 8 6 4 9 22 24 26 29 34 34 29 25 22 18 14 13 11 8 4 3 2 2 3 5 5 5 5 5 7 8 12 12 8 8 8 8 7 8 8 11
Wind_Direction
147 135 136 141 61 62 258 255 251 270 289 299 150 167 192 172 165 211 191 167 185 184 187 194 199 204 217 230 233 260 284 294 293 289 282 279 277 278 278 278 281 278 268 258 261 261 262 257 258
153 140 123 114 104 110 260 262 254 244 284 321 254 217 192 227 206 210 162 186 172 175 188 191 195 207 217 222 232 254 279 297 290 285 279 270 262 266 270 273 279 281 272 267 260 252 257 262 258
163 166 115 111 138 197 224 219 246 301 312 252 229 243 225 227 215 211 192 184 173 174 191 190 194 204 212 223 238 263 286 299 296 291 281 270 259 262 268 267 271 273 263 261 258 262 269 260 266
167 176 77 115 236 250 224 266 277 316 337 248 215 254 246 226 211 223 200 188 179 175 193 195 201 208 214 222 231 254 271 288 297 302 287 271 267 272 274 270 270 266 269 254 253 257 258 256 261
171 132 66 258 249 259 252 262 286 287 286 271 221 245 246 233 224 218 212 197 186 182 199 204 206 209 218 225 232 248 261 271 287 301 291 268 266 271 275 270 268 270 266 257 260 257 256 258 252
147 113 78 240 231 242 256 266 274 238 294 295 220 226 254 255 237 228 218 201 187 217 216 213 214 217 221 227 234 246 262 278 290 299 282 267 274 280 275 269 264 262 261 262 258 257 260 254 253
149 111 225 260 271 275 234 225 213 347 308 313 249 200 260 267 245 228 221 200 211 223 223 222 222 221 222 229 236 253 267 280 287 287 273 267 270 268 268 276 269 260 253 252 253 254 252 251 250
212 120 234 236 238 273 213 231 174 41 323 325 309 262 274 302 264 229 210 208 215 226 227 226 227 223 224 228 237 255 272 282 286 278 266 264 268 267 273 287 277 269 263 256 251 252 251 251 248
194 102 237 223 174 248 186 279 165 309 298 291 293 282 289 286 276 223 212 213 217 223 228 226 225 224 225 228 240 254 266 276 277 266 259 262 267 269 278 284 280 274 264 259 250 257 260 245 245
172 173 229 195 178 245 276 270 301 321 311 292 290 300 298 297 261 226 217 221 221 225 229 226 225 222 225 227 238 254 265 276 270 262 260 263 265 264 275 279 282 279 269 256 247 255 255 241 239
190 219 242 267 235 239 285 287 298 284 288 283 292 304 308 302 255 228 227 230 233 231 231 229 223 222 226 229 241 255 272 268 261 261 258 256 257 260 273 265 266 281 270 267 251 249 259 240 235
198 224 239 259 275 283 260 288 287 279 267 284 293 299 299 292 258 233 232 234 231 232 235 230 224 224 226 228 240 261 269 267 267 263 264 262 268 268 268 262 261 275 267 263 263 250 250 243 233
212 238 253 261 277 279 279 264 267 286 286 287 291 294 296 291 263 242 242 238 234 235 235 229 223 224 227 230 245 265 269 275 267 273 279 282 280 275 264 260 257 263 269 260 262 255 245 242 231
216 225 254 263 269 275 272 275 285 269 276 283 287 289 289 289 271 244 238 238 239 237 235 230 224 226 222 231 253 265 268 270 274 272 280 292 291 280 268 258 255 253 262 257 262 258 242 238 230
246 241 265 239 247 249 269 273 249 269 278 276 277 283 285 283 265 249 251 246 242 237 234 230 223 217 218 238 253 260 266 275 278 273 279 290 302 289 271 255 251 245 254 257 263 260 233 226 219
258 154 258 182 204 255 185 269 265 278 269 268 275 285 290 288 281 266 258 244 243 236 231 227 220 213 220 237 251 255 267 283 282 279 274 286 300 295 277 256 246 241 251 258 264 253 225 221 208
355 255 250 297 247 243 184 287 270 277 279 280 283 287 290 295 288 279 257 242 242 234 230 217 210 209 225 234 243 255 279 288 284 288 277 281 293 297 283 258 240 236 246 256 257 244 215 211 201
196 255 237 234 272 185 267 260 280 280 277 265 277 284 292 294 288 291 264 244 240 232 223 205 203 209 219 227 236 260 283 289 294 291 280 278 288 297 293 255 232 234 239 248 249 228 204 203 203
201 231 240 244 193 226 238 259 273 281 261 264 276 281 287 290 292 284 267 250 239 223 205 197 199 207 213 219 232 255 294 303 302 292 279 278 282 296 292 252 229 234 238 245 239 203 197 198 197
203 225 239 269 228 207 278 275 284 285 272 265 274 282 284 287 282 266 240 237 225 205 192 188 189 205 207 211 230 274 315 322 322 306 282 273 287 297 270 235 231 226 236 235 219 191 189 186 187
217 219 233 244 21 289 313 295 286 282 265 274 269 281 283 282 268 238 226 212 199 186 180 182 190 198 198 205 231 298 330 341 341 326 295 293 307 291 266 230 213 224 233 224 200 185 190 190 184
218 210 233 250 216 242 108 286 289 301 299 265 292 303 282 282 264 228 207 190 182 175 174 182 191 189 191 195 235 315 346 358 356 343 307 301 303 294 246 197 211 227 207 196 184 184 187 191 199
228 194 215 241 230 242 204 273 257 294 288 280 280 289 286 271 247 205 187 175 170 172 173 182 183 187 191 192 272 354 9 359 360 352 331 308 297 251 213 203 198 179 168 166 170 180 190 188 204
164 93 58 48 115 247 231 202 246 216 236 257 262 287 294 212 182 177 170 166 165 172 177 179 181 188 188 186 4 333 346 350 355 353 342 326 278 201 177 171 160 166 166 167 164 170 183 189 201
142 119 211 299 261 229 202 196 245 265 240 231 252 261 225 190 169 166 166 167 170 176 177 174 183 189 182 178 350 350 346 351 353 355 353 343 326 179 175 165 155 163 170 169 178 181 184 185 189
182 168 161 188 206 235 207 213 239 224 241 244 256 266 200 180 177 169 170 169 175 177 173 172 183 179 177 168 329 352 16 2 358 358 15 34 86 163 172 157 152 146 164 169 176 174 180 185 195
189 210 164 133 210 121 234 272 289 220 213 220 197 176 185 181 178 174 172 173 179 176 172 173 169 163 162 169 160 70 35 11 7 19 14 33 78 147 170 161 161 143 150 149 161 165 171 174 186
179 148 171 198 193 225 280 274 221 183 220 250 192 184 185 181 178 175 175 177 178 175 169 170 167 149 156 172 162 82 31 22 16 23 30 58 123 143 166 172 166 152 154 154 161 168 174 182 191
134 179 136 159 149 169 201 260 218 198 197 200 210 194 183 181 179 177 179 178 177 172 176 174 173 172 175 181 166 106 28 29 17 24 57 92 102 142 158 174 173 162 166 168 172 173 179 176 185
203 178 164 196 191 183 152 279 243 231 217 234 188 177 185 185 179 180 179 178 178 177 181 182 181 188 188 185 173 165 54 45 23 37 87 87 93 131 153 171 175 167 165 175 179 179 169 166 173